This is the latest recevied weather packets stored in our database for station/object PY5KT-13. If no packets are shown the sender has not sent any weather packets the latest 10 day(s).
| Time | Temp. | Humidity | Pressure | Rain* | Wind** | Luminosity | Snow |
|---|---|---|---|---|---|---|---|
| 1777473821 | 15° C | 95% | 1020.2 hPa | 1.78 mm | - | 27 W/m² | - |
| 1777473519 | 15° C | 95% | 1020.1 hPa | 1.52 mm | - | 39 W/m² | - |
| 1777473217 | 15° C | 95% | 1020.5 hPa | 1.52 mm | - | 54 W/m² | - |
| 1777472916 | 15° C | 95% | 1020.5 hPa | 1.52 mm | - | 59 W/m² | - |
| 1777472614 | 15° C | 95% | 1020.9 hPa | 1.27 mm | - | 39 W/m² | - |
| 1777472312 | 15° C | 95% | 1021.1 hPa | 1.52 mm | - | 31 W/m² | - |
| 1777472010 | 15° C | 94% | 1020.8 hPa | 0.76 mm | - | 23 W/m² | - |
| 1777471709 | 15.56° C | 94% | 1020.7 hPa | 0.51 mm | - | 27 W/m² | - |
| 1777471407 | 15.56° C | 94% | 1020.8 hPa | 0.51 mm | - | 32 W/m² | - |
| 1777471105 | 15.56° C | 94% | 1020.9 hPa | 0.51 mm | - | 47 W/m² | - |
| 1777470803 | 15.56° C | 95% | 1020.9 hPa | 0.51 mm | - | 36 W/m² | - |
| 1777470501 | 15.56° C | 94% | 1020.8 hPa | 0.76 mm | - | 32 W/m² | - |
| 1777470200 | 15.56° C | 94% | 1020.7 hPa | 0.76 mm | - | 29 W/m² | - |
| 1777469897 | 15° C | 95% | 1020.7 hPa | 0.76 mm | - | 29 W/m² | - |
| 1777469595 | 15.56° C | 96% | 1020.5 hPa | 0.76 mm | - | 35 W/m² | - |
| 1777469294 | 15.56° C | 97% | 1020.4 hPa | 1.02 mm | - | 47 W/m² | - |
| 1777468992 | 15.56° C | 97% | 1020.5 hPa | 1.02 mm | - | 54 W/m² | - |
| 1777468690 | 15.56° C | 97% | 1020.7 hPa | 0.76 mm | - | 78 W/m² | - |
| 1777468388 | 15.56° C | 97% | 1021 hPa | 0.76 mm | - | 50 W/m² | - |
| 1777468086 | 15.56° C | 97% | 1020.9 hPa | 0.76 mm | - | 45 W/m² | - |
| 1777467783 | 15.56° C | 97% | 1020.9 hPa | 0.51 mm | - | 41 W/m² | - |
| 1777467482 | 15.56° C | 97% | 1020.9 hPa | 0.76 mm | - | 41 W/m² | - |
| 1777467179 | 15° C | 98% | 1020.9 hPa | 0.76 mm | - | 45 W/m² | - |
| 1777466877 | 15° C | 98% | 1020.8 hPa | 0.76 mm | - | 40 W/m² | - |
| 1777466574 | 15° C | 98% | 1020.8 hPa | 0.76 mm | - | 35 W/m² | - |
* Rain latest hour (hover to see other rain measurements)
** Current wind speed in m/s (hover to see current wind gust speed)